�������C�����ː����j�^�v���󋵏��
Date,Time,Cs137(Bq/L),Cs134(Bq/L),�S��(Bq/L)
2018/01/23,00:00,0.72,0.053,ND
2018/01/23,00:10,0.71,0.056,ND
2018/01/23,00:20,0.68,0.050,ND
2018/01/23,00:30,0.68,0.037,ND
2018/01/23,00:40,0.66,0.038,9.9
2018/01/23,00:50,0.66,0.042,13
2018/01/23,01:00,0.66,0.044,12
2018/01/23,01:10,0.66,0.046,14
2018/01/23,01:20,0.67,0.050,16
2018/01/23,01:30,0.67,0.050,14
2018/01/23,01:40,0.70,0.041,15
2018/01/23,01:50,0.67,0.034,13
2018/01/23,02:00,0.65,0.032,13
2018/01/23,02:10,0.55,0.025,12
2018/01/23,02:20,0.66,ND,8.8
2018/01/23,02:30,0.65,ND,13
2018/01/23,02:40,0.60,ND,11
2018/01/23,02:50,0.61,ND,ND
2018/01/23,03:00,0.63,ND,8.9
2018/01/23,03:10,0.63,ND,11
2018/01/23,03:20,0.64,ND,12
2018/01/23,03:30,0.62,ND,9.7
2018/01/23,03:40,0.54,ND,ND
2018/01/23,03:50,0.51,ND,8.9
2018/01/23,04:00,0.44,0.034,ND
2018/01/23,04:10,0.41,0.033,ND
2018/01/23,04:20,0.39,0.028,ND
2018/01/23,04:30,0.43,ND,ND
2018/01/23,04:40,0.50,ND,8.8
2018/01/23,04:50,0.51,ND,ND
2018/01/23,05:00,0.51,ND,ND
2018/01/23,05:10,0.52,ND,ND
2018/01/23,05:20,0.51,ND,10
2018/01/23,05:30,0.51,ND,9.5
2018/01/23,05:40,0.53,ND,10
2018/01/23,05:50,0.52,ND,12
2018/01/23,06:00,0.53,ND,13
2018/01/23,06:10,0.52,ND,12
2018/01/23,06:20,0.54,ND,14
2018/01/23,06:30,0.53,ND,13
2018/01/23,06:40,0.52,ND,ND
2018/01/23,06:50,0.47,ND,9.6
2018/01/23,07:00,0.46,ND,12
2018/01/23,07:10,0.51,ND,13
2018/01/23,07:20,0.48,ND,11
2018/01/23,07:30,0.49,ND,15
2018/01/23,07:40,0.49,ND,17
2018/01/23,07:50,0.49,ND,18
2018/01/23,08:00,0.50,ND,14
2018/01/23,08:10,0.50,ND,13
2018/01/23,08:20,0.42,ND,10
2018/01/23,08:30,0.42,ND,ND
2018/01/23,08:40,0.40,ND,ND
2018/01/23,08:50,0.48,ND,ND
2018/01/23,09:00,0.47,ND,ND
2018/01/23,09:10,0.48,ND,ND
2018/01/23,09:20,0.46,ND,ND
2018/01/23,09:30,0.46,ND,ND
2018/01/23,09:40,0.47,ND,ND
2018/01/23,09:50,0.48,ND,ND
2018/01/23,10:00,0.47,ND,10
2018/01/23,10:10,0.46,ND,12
2018/01/23,10:20,0.47,ND,14
2018/01/23,10:30,0.45,ND,14
2018/01/23,10:40,0.47,ND,14
2018/01/23,10:50,0.47,ND,13
2018/01/23,11:00,0.47,ND,12
2018/01/23,11:10,0.46,ND,14
2018/01/23,11:20,0.45,ND,15
2018/01/23,11:30,0.42,ND,14
2018/01/23,11:40,0.45,ND,15
2018/01/23,11:50,0.36,0.030,17
2018/01/23,12:00,0.46,ND,18
2018/01/23,12:10,0.39,0.029,17
2018/01/23,12:20,0.45,ND,16
2018/01/23,12:30,0.52,ND,18
2018/01/23,12:40,0.52,ND,20
2018/01/23,12:50,0.50,ND,19
2018/01/23,13:00,0.40,0.028,17
2018/01/23,13:10,0.46,ND,16
2018/01/23,13:20,0.41,0.028,17
2018/01/23,13:30,0.39,0.030,16
2018/01/23,13:40,0.37,0.042,13
2018/01/23,13:50,0.39,0.033,12
2018/01/23,14:00,0.48,ND,14
2018/01/23,14:10,0.47,ND,13
2018/01/23,14:20,0.47,ND,9.6
2018/01/23,14:30,0.49,ND,10
2018/01/23,14:40,0.49,ND,9.9
2018/01/23,14:50,0.51,ND,11
2018/01/23,15:00,0.52,ND,10
2018/01/23,15:10,0.50,ND,13
2018/01/23,15:20,0.50,ND,14
2018/01/23,15:30,0.50,ND,15
2018/01/23,15:40,0.49,ND,16
2018/01/23,15:50,0.34,0.039,16
2018/01/23,16:00,0.38,0.026,16
2018/01/23,16:10,0.37,0.032,14
2018/01/23,16:20,0.38,0.027,14
2018/01/23,16:30,0.37,0.032,12
2018/01/23,16:40,0.36,0.041,11
2018/01/23,16:50,0.50,ND,11
2018/01/23,17:00,0.52,ND,10
2018/01/23,17:10,0.53,ND,12
2018/01/23,17:20,0.54,ND,12
2018/01/23,17:30,0.54,ND,14
2018/01/23,17:40,0.46,ND,16
2018/01/23,17:50,0.48,ND,19
2018/01/23,18:00,0.48,ND,19
2018/01/23,18:10,0.55,ND,21
2018/01/23,18:20,0.54,ND,20
2018/01/23,18:30,0.53,ND,18
2018/01/23,18:40,0.54,ND,17
2018/01/23,18:50,0.53,ND,16
2018/01/23,19:00,0.55,ND,15
2018/01/23,19:10,0.54,ND,11
2018/01/23,19:20,0.56,ND,13
2018/01/23,19:30,0.56,ND,13
2018/01/23,19:40,0.56,ND,12
2018/01/23,19:50,0.55,ND,9.6
2018/01/23,20:00,0.52,ND,ND
2018/01/23,20:10,0.53,ND,8.8
2018/01/23,20:20,0.53,ND,ND
2018/01/23,20:30,0.55,ND,11
2018/01/23,20:40,0.53,ND,12
2018/01/23,20:50,0.53,ND,13
2018/01/23,21:00,0.55,ND,15
2018/01/23,21:10,0.54,ND,14
2018/01/23,21:20,0.54,ND,15
2018/01/23,21:30,0.42,0.026,15
2018/01/23,21:40,0.45,0.027,14
2018/01/23,21:50,0.58,ND,11
2018/01/23,22:00,0.58,ND,13
2018/01/23,22:10,0.57,ND,13
2018/01/23,22:20,0.59,ND,12
2018/01/23,22:30,0.59,ND,ND
2018/01/23,22:40,0.59,ND,ND
2018/01/23,22:50,0.56,ND,12
2018/01/23,23:00,0.46,0.037,12
2018/01/23,23:10,0.59,ND,13
2018/01/23,23:20,0.56,ND,10
2018/01/23,23:30,0.56,ND,12
2018/01/23,23:40,0.53,ND,16
2018/01/23,23:50,0.54,ND,10
